When you browse on this site, cookies collect data to enhance your experience and personalize the content and advertising you see.
Visit our Privacy Policy to learn more. By continuing to use the site, you agree to this use of cookies and data.
  • In France
  • List of Countries
  • For 7 days
  • Water Temperature
  • Weather Map
  • Weather Widgets
  • user-avatar
    Login

    Hourly Weather Pleven

    Today, 16 September, Monday

    Time Temperature Precipitation Wind Pressure Humidity
    00:00 +18°C° 0 mm 1 mps 750 mmHg 56%
    01:00 +18°C° 0 mm 1 mps 750 mmHg 59%
    02:00 +16°C° 0 mm 1 mps 749 mmHg 61%
    03:00 +16°C° 0 mm 1 mps 749 mmHg 63%
    04:00 +16°C° 0 mm 1 mps 749 mmHg 65%
    05:00 +15°C° 0 mm 1 mps 748 mmHg 67%
    06:00 +18°C° 0 mm 1 mps 748 mmHg 61%
    07:00 +20°C° 0 mm 1 mps 748 mmHg 55%
    08:00 +22°C° 0 mm 1 mps 748 mmHg 48%
    09:00 +24°C° 0 mm 2 mps 748 mmHg 41%
    10:00 +26°C° 0 mm 2 mps 747 mmHg 35%
    11:00 +29°C° 0 mm 2 mps 747 mmHg 29%
    12:00 +30°C° 0 mm 3 mps 746 mmHg 26%
    13:00 +31°C° 0 mm 3 mps 746 mmHg 22%
    14:00 +33°C° 0 mm 3 mps 745 mmHg 19%
    15:00 +33°C° 0 mm 3 mps 745 mmHg 19%
    16:00 +33°C° 0 mm 3 mps 744 mmHg 18%
    17:00 +33°C° 0 mm 3 mps 744 mmHg 18%
    18:00 +29°C° 0 mm 2 mps 744 mmHg 23%
    19:00 +26°C° 0 mm 2 mps 744 mmHg 27%
    20:00 +23°C° 0 mm 1 mps 745 mmHg 31%
    21:00 +21°C° 0 mm 2 mps 745 mmHg 33%
    22:00 +21°C° 0 mm 2 mps 745 mmHg 35%
    23:00 +20°C° 0 mm 3 mps 745 mmHg 36%

    Tomorrow, 17 September, Tuesday

    Time Temperature Precipitation Wind Pressure Humidity
    00:00 +20°C° 0 mm 3 mps 745 mmHg 37%
    01:00 +19°C° 0 mm 2 mps 745 mmHg 39%
    02:00 +19°C° 0 mm 2 mps 745 mmHg 40%
    03:00 +19°C° 0 mm 2 mps 744 mmHg 41%
    04:00 +18°C° 0 mm 2 mps 744 mmHg 42%
    05:00 +18°C° 0 mm 2 mps 744 mmHg 43%
    06:00 +20°C° 0 mm 2 mps 744 mmHg 40%
    07:00 +21°C° 0 mm 2 mps 744 mmHg 37%
    08:00 +24°C° 0 mm 2 mps 745 mmHg 33%
    09:00 +27°C° 0 mm 2 mps 745 mmHg 29%
    10:00 +29°C° 0 mm 3 mps 745 mmHg 25%
    11:00 +33°C° 0 mm 3 mps 745 mmHg 21%
    12:00 +33°C° 0 mm 3 mps 744 mmHg 20%
    13:00 +34°C° 0 mm 3 mps 744 mmHg 18%
    14:00 +35°C° 0 mm 3 mps 743 mmHg 17%
    15:00 +35°C° 0 mm 3 mps 743 mmHg 18%
    16:00 +35°C° 0 mm 3 mps 742 mmHg 19%
    17:00 +35°C° 0 mm 2 mps 742 mmHg 20%
    18:00 +31°C° 0 mm 2 mps 742 mmHg 23%
    19:00 +28°C° 0 mm 2 mps 742 mmHg 27%
    20:00 +25°C° 0 mm 2 mps 742 mmHg 31%
    21:00 +25°C° 0 mm 2 mps 742 mmHg 32%
    22:00 +24°C° 0 mm 2 mps 742 mmHg 33%
    23:00 +23°C° 0 mm 1 mps 742 mmHg 35%

    Day after tomorrow, 18 September, Wednesday

    Time Temperature Precipitation Wind Pressure Humidity
    00:00 +21°C° 0 mm 2 mps 742 mmHg 36%
    01:00 +20°C° 0 mm 2 mps 742 mmHg 37%
    02:00 +20°C° 0 mm 2 mps 742 mmHg 38%
    03:00 +19°C° 0 mm 2 mps 742 mmHg 38%
    04:00 +19°C° 0 mm 2 mps 742 mmHg 38%
    05:00 +19°C° 0 mm 2 mps 742 mmHg 38%
    06:00 +20°C° 0 mm 2 mps 742 mmHg 36%
    07:00 +23°C° 0 mm 2 mps 743 mmHg 33%
    08:00 +25°C° 0 mm 2 mps 743 mmHg 31%
    09:00 +26°C° 0 mm 4 mps 744 mmHg 32%
    10:00 +27°C° 0 mm 5 mps 744 mmHg 33%
    11:00 +28°C° 0 mm 7 mps 745 mmHg 34%
    12:00 +28°C° 0 mm 7 mps 745 mmHg 36%
    13:00 +27°C° 0 mm 7 mps 745 mmHg 37%
    14:00 +26°C° 0 mm 7 mps 745 mmHg 39%
    15:00 +24°C° 0 mm 6 mps 746 mmHg 36%
    16:00 +23°C° 0 mm 6 mps 746 mmHg 34%
    17:00 +22°C° 0 mm 5 mps 746 mmHg 32%
    18:00 +21°C° 0 mm 4 mps 747 mmHg 32%
    19:00 +19°C° 0 mm 3 mps 747 mmHg 32%
    20:00 +17°C° 0 mm 2 mps 748 mmHg 33%
    21:00 +16°C° 0 mm 2 mps 748 mmHg 34%
    22:00 +16°C° 0 mm 2 mps 748 mmHg 35%
    23:00 +15°C° 0 mm 2 mps 749 mmHg 36%

    19 September, Thursday

    Time Temperature Precipitation Wind Pressure Humidity
    00:00 +15°C° 0 mm 2 mps 749 mmHg 37%
    01:00 +14°C° 0 mm 2 mps 749 mmHg 38%
    02:00 +12°C° 0 mm 3 mps 749 mmHg 40%
    03:00 +14°C° 0 mm 2 mps 749 mmHg 40%
    04:00 +14°C° 0 mm 2 mps 749 mmHg 40%
    05:00 +14°C° 0 mm 1 mps 749 mmHg 41%
    06:00 +14°C° 0 mm 2 mps 749 mmHg 40%
    07:00 +15°C° 0 mm 2 mps 749 mmHg 39%
    08:00 +15°C° 0 mm 2 mps 749 mmHg 38%
    09:00 +16°C° 0 mm 2 mps 749 mmHg 36%
    10:00 +18°C° 0 mm 3 mps 749 mmHg 33%
    11:00 +19°C° 0 mm 3 mps 749 mmHg 31%
    12:00 +19°C° 0 mm 3 mps 749 mmHg 31%
    13:00 +20°C° 0 mm 3 mps 748 mmHg 31%
    14:00 +20°C° 0 mm 3 mps 748 mmHg 31%
    15:00 +19°C° 0 mm 3 mps 748 mmHg 36%
    16:00 +18°C° 0 mm 3 mps 747 mmHg 42%
    17:00 +17°C° 0 mm 3 mps 747 mmHg 48%
    18:00 +16°C° 0.1 mm 3 mps 748 mmHg 53%
    19:00 +14°C° 0.1 mm 3 mps 748 mmHg 59%
    20:00 +14°C° 0.1 mm 4 mps 748 mmHg 64%
    21:00 +13°C° 0.3 mm 4 mps 748 mmHg 68%
    22:00 +13°C° 0.3 mm 4 mps 749 mmHg 72%
    23:00 +13°C° 0.3 mm 4 mps 749 mmHg 76%

    20 September, Friday

    Time Temperature Precipitation Wind Pressure Humidity
    00:00 +13°C° 0 mm 3 mps 749 mmHg 73%
    01:00 +13°C° 0 mm 3 mps 749 mmHg 70%
    02:00 +13°C° 0 mm 3 mps 749 mmHg 66%
    03:00 +12°C° 0 mm 3 mps 749 mmHg 63%
    04:00 +11°C° 0 mm 3 mps 749 mmHg 59%
    05:00 +10°C° 0 mm 3 mps 749 mmHg 55%
    06:00 +11°C° 0 mm 4 mps 749 mmHg 51%
    07:00 +12°C° 0 mm 5 mps 749 mmHg 46%
    08:00 +13°C° 0 mm 6 mps 749 mmHg 42%
    09:00 +15°C° 0 mm 6 mps 749 mmHg 36%
    10:00 +16°C° 0 mm 6 mps 750 mmHg 31%
    11:00 +19°C° 0 mm 6 mps 750 mmHg 25%
    12:00 +20°C° 0 mm 6 mps 749 mmHg 24%
    13:00 +20°C° 0 mm 5 mps 749 mmHg 22%
    14:00 +21°C° 0 mm 4 mps 748 mmHg 21%
    15:00 +21°C° 0 mm 4 mps 748 mmHg 21%
    16:00 +21°C° 0 mm 4 mps 748 mmHg 20%
    17:00 +21°C° 0 mm 3 mps 748 mmHg 20%
    18:00 +18°C° 0 mm 3 mps 749 mmHg 24%
    19:00 +16°C° 0 mm 2 mps 750 mmHg 28%
    20:00 +13°C° 0 mm 1 mps 750 mmHg 33%
    21:00 +13°C° 0 mm 2 mps 751 mmHg 35%
    22:00 +12°C° 0 mm 2 mps 751 mmHg 37%
    23:00 +10°C° 0 mm 2 mps 752 mmHg 40%

    21 September, Saturday

    Time Temperature Precipitation Wind Pressure Humidity
    00:00 +9°C° 0 mm 2 mps 752 mmHg 43%
    01:00 +9°C° 0 mm 2 mps 752 mmHg 47%
    02:00 +8°C° 0 mm 2 mps 752 mmHg 50%
    03:00 +8°C° 0 mm 1 mps 752 mmHg 53%
    04:00 +7°C° 0 mm 1 mps 753 mmHg 56%
    05:00 +7°C° 0 mm 1 mps 753 mmHg 60%
    06:00 +8°C° 0 mm 1 mps 753 mmHg 55%
    07:00 +9°C° 0 mm 1 mps 753 mmHg 50%
    08:00 +11°C° 0 mm 1 mps 754 mmHg 46%
    09:00 +13°C° 0 mm 1 mps 754 mmHg 40%
    10:00 +15°C° 0 mm 1 mps 754 mmHg 35%
    11:00 +18°C° 0 mm 1 mps 754 mmHg 30%
    12:00 +19°C° 0 mm 1 mps 753 mmHg 27%
    13:00 +19°C° 0 mm 2 mps 753 mmHg 24%
    14:00 +21°C° 0 mm 2 mps 752 mmHg 22%
    15:00 +20°C° 0 mm 2 mps 752 mmHg 21%
    16:00 +20°C° 0 mm 2 mps 752 mmHg 21%
    17:00 +20°C° 0 mm 2 mps 752 mmHg 20%
    18:00 +18°C° 0 mm 1 mps 752 mmHg 24%
    19:00 +15°C° 0 mm 1 mps 752 mmHg 29%
    20:00 +12°C° 0 mm 1 mps 753 mmHg 33%
    21:00 +12°C° 0 mm 1 mps 753 mmHg 34%
    22:00 +11°C° 0 mm 1 mps 753 mmHg 36%
    23:00 +11°C° 0 mm 1 mps 754 mmHg 37%
    Show more